{"data":{"norad_id":60538,"epoch":"2026-05-24T16:00:58.296960Z","epoch_age_seconds":101018,"freshness":"FRESH","line1":"1 60538U 24149BY  26144.66734140  .00003792  00000+0  28627-3 0  9998","line2":"2 60538  97.6753 223.7093 0007271  96.8268 263.3785 15.02990587 96200","mean_motion":15.02990587,"eccentricity":0.0007271,"inclination_deg":97.6753,"raan_deg":223.7093,"arg_perigee_deg":96.8268,"mean_anomaly_deg":263.3785,"bstar":0.00028627,"rev_number":9620,"period_min":95.808983266773,"perigee_km":552.63763268019,"apogee_km":562.72369872966,"semimajor_km":6935.8176657049,"source":"CELESTRAK","updated_at":"2026-05-25T13:38:02.148333Z"}}